Total_Precipitation_Accumulation
0.25 0.25 0.25 0.19 0.18 0.19 0.20 0.24 0.31 0.37 0.27 0.23 0.23 0.26 0.26 0.19 0.18 0.16 0.15 0.16 0.20 0.27 0.31 0.35 0.40 0.44 0.50 0.53 0.52 0.48 0.44 0.44 0.46 0.51 0.57 0.64 0.76 0.81 0.86 0.83 0.95 1.00 0.80
0.22 0.22 0.24 0.20 0.17 0.18 0.20 0.23 0.30 0.37 0.29 0.26 0.24 0.23 0.23 0.21 0.20 0.19 0.17 0.19 0.22 0.27 0.30 0.31 0.35 0.38 0.41 0.40 0.42 0.49 0.47 0.45 0.54 0.68 0.82 0.80 0.90 0.92 0.98 0.94 1.13 1.41 0.94
0.20 0.19 0.20 0.26 0.21 0.18 0.20 0.21 0.27 0.35 0.32 0.31 0.26 0.22 0.23 0.23 0.22 0.23 0.22 0.24 0.30 0.36 0.36 0.35 0.37 0.40 0.41 0.40 0.42 0.45 0.51 0.54 0.68 0.97 1.34 1.24 1.18 1.13 1.08 1.02 0.99 1.02 0.91
0.20 0.18 0.17 0.22 0.25 0.20 0.19 0.21 0.27 0.36 0.34 0.35 0.28 0.23 0.23 0.23 0.25 0.27 0.26 0.29 0.36 0.42 0.43 0.43 0.43 0.42 0.42 0.41 0.44 0.46 0.54 0.64 0.89 1.24 1.70 1.60 1.51 1.55 1.40 1.21 1.06 0.99 0.92
0.27 0.21 0.18 0.20 0.23 0.22 0.22 0.22 0.32 0.38 0.36 0.39 0.31 0.26 0.25 0.25 0.25 0.29 0.32 0.33 0.37 0.42 0.41 0.37 0.37 0.38 0.42 0.41 0.46 0.50 0.60 0.83 1.13 1.49 1.93 2.11 2.20 1.89 1.43 1.19 1.17 1.17 1.09
0.33 0.25 0.19 0.20 0.21 0.24 0.27 0.28 0.39 0.37 0.39 0.42 0.36 0.35 0.34 0.31 0.30 0.34 0.40 0.42 0.42 0.45 0.44 0.42 0.41 0.41 0.45 0.43 0.48 0.56 0.71 1.04 1.22 1.55 2.08 2.32 2.06 1.82 1.47 1.29 1.26 1.19 1.07
0.39 0.29 0.22 0.23 0.25 0.31 0.38 0.39 0.50 0.47 0.48 0.51 0.52 0.49 0.44 0.42 0.41 0.41 0.46 0.49 0.48 0.47 0.46 0.47 0.49 0.47 0.46 0.44 0.48 0.56 0.72 1.02 1.24 2.00 2.17 2.15 2.04 1.88 1.66 1.44 1.28 1.17 1.08
0.42 0.33 0.31 0.29 0.35 0.45 0.52 0.53 0.63 0.57 0.60 0.60 0.63 0.60 0.54 0.48 0.45 0.45 0.47 0.51 0.54 0.58 0.55 0.50 0.46 0.45 0.45 0.47 0.46 0.53 0.71 0.81 1.00 1.63 1.94 1.89 1.68 1.68 1.78 1.54 1.37 1.24 1.15
0.60 0.46 0.42 0.39 0.42 0.54 0.67 0.67 0.69 0.63 0.64 0.68 0.73 0.72 0.64 0.55 0.49 0.49 0.54 0.57 0.59 0.59 0.53 0.48 0.45 0.44 0.47 0.49 0.53 0.55 0.67 0.83 0.99 1.41 1.55 1.69 1.46 1.55 1.80 1.69 1.43 1.29 1.24
0.93 0.76 0.66 0.63 0.62 0.64 0.71 0.78 0.75 0.70 0.74 0.77 0.79 0.75 0.70 0.61 0.56 0.58 0.57 0.62 0.59 0.62 0.62 0.60 0.57 0.56 0.57 0.57 0.61 0.67 0.74 0.82 0.88 1.20 1.83 1.81 1.49 1.82 1.99 1.78 1.58 1.48 1.33
1.05 1.14 1.07 0.93 0.89 0.88 0.82 0.82 0.89 0.81 0.80 0.85 0.84 0.76 0.73 0.74 0.82 0.80 0.69 0.71 0.72 0.79 0.89 0.84 0.78 0.76 0.73 0.72 0.78 0.86 0.87 0.75 1.00 1.55 2.15 1.97 1.76 2.04 2.11 1.94 1.78 1.71 1.57
1.27 1.39 1.40 1.36 1.28 1.20 1.12 1.23 1.25 1.09 1.00 0.98 1.06 0.95 0.93 1.17 1.25 1.09 1.14 1.10 1.07 1.05 1.08 1.10 1.01 0.92 0.88 0.80 0.89 0.96 0.83 0.84 1.30 1.92 2.00 1.61 1.86 2.26 2.37 2.19 2.02 1.94 1.90
1.60 1.42 1.33 1.47 1.57 1.67 1.75 1.63 1.61 1.57 1.52 1.44 1.54 1.45 1.46 1.65 1.55 1.54 1.61 1.47 1.34 1.29 1.27 1.41 1.27 0.98 0.90 0.97 1.07 1.05 0.97 1.00 1.32 1.81 1.94 1.78 2.00 2.42 2.61 2.48 2.24 2.16 2.18
1.90 1.73 1.51 1.48 1.56 1.77 1.95 1.90 1.85 1.82 1.80 1.73 1.76 1.61 1.81 1.97 2.05 2.08 2.14 1.91 1.83 1.77 1.80 1.79 1.70 1.43 1.25 1.22 1.22 1.26 1.29 1.21 1.40 1.73 1.85 1.65 1.80 2.28 2.76 2.80 2.54 2.39 2.34
2.30 2.15 1.96 1.75 1.72 1.88 2.12 2.25 2.15 2.14 2.10 2.21 2.32 2.09 2.13 2.15 2.22 2.52 2.52 2.64 2.30 2.27 2.33 2.25 2.05 1.95 1.76 1.58 1.50 1.47 1.52 1.44 1.51 1.71 1.71 1.68 1.80 2.14 2.60 2.84 2.82 2.80 2.73
2.90 2.56 2.31 2.19 2.02 2.01 2.11 2.39 2.45 2.31 2.38 2.49 2.61 2.49 2.50 2.57 2.68 3.02 3.12 3.06 2.81 2.82 2.98 3.00 2.80 2.57 2.33 2.18 1.96 1.91 1.86 1.86 1.96 1.98 1.93 1.86 1.75 1.83 2.29 2.72 3.02 3.19 3.16
3.11 2.98 2.78 2.67 2.60 2.41 2.37 2.61 2.72 2.63 2.58 2.59 2.75 2.86 2.83 2.91 3.21 3.34 3.59 3.52 3.30 3.28 3.32 3.27 3.45 3.42 2.94 2.58 2.38 2.32 2.31 2.23 2.29 2.34 2.37 2.27 2.01 1.90 2.05 2.37 2.67 2.88 3.00
3.31 3.08 3.00 2.70 2.65 2.84 2.84 3.11 3.07 3.14 3.27 3.18 3.16 3.35 3.37 3.43 3.55 3.60 3.60 3.63 3.53 3.49 3.78 3.89 3.83 3.76 3.50 3.13 2.88 2.63 2.51 2.56 2.38 2.33 2.36 2.34 2.35 2.04 1.86 1.89 2.07 2.29 2.60
2.78 2.87 2.99 2.92 2.86 2.91 3.08 3.44 3.59 3.76 3.96 4.14 4.15 4.32 4.25 4.06 4.01 4.06 4.02 4.08 3.94 3.99 3.93 3.81 4.12 4.05 3.88 3.52 3.03 2.77 2.52 2.53 2.41 2.15 2.14 2.20 2.23 2.12 2.01 1.83 1.90 2.08 2.41
2.70 2.87 3.04 3.18 3.36 3.29 3.29 3.51 3.97 4.19 4.34 4.72 4.78 4.79 4.87 4.87 4.74 4.71 4.63 4.63 4.48 4.37 4.23 4.16 4.19 3.96 3.81 3.57 3.03 2.78 2.50 2.21 2.15 2.13 1.93 1.97 1.98 1.86 1.92 1.92 2.00 1.88 2.10
2.88 3.05 3.02 3.21 3.56 3.77 4.11 4.10 4.33 4.77 5.12 5.26 5.37 5.35 5.27 5.17 5.17 5.01 4.83 4.91 4.75 4.53 4.30 4.19 4.15 4.03 3.67 3.55 3.51 3.12 2.56 2.18 2.02 1.86 1.85 1.85 1.74 1.75 1.96 1.96 1.93 1.86 1.80
2.86 3.13 3.26 3.41 3.85 4.32 4.83 5.34 5.75 6.09 6.09 6.19 6.14 6.03 5.74 5.55 5.43 5.27 5.24 5.09 4.84 4.67 4.42 4.23 4.15 4.03 3.69 3.62 3.63 3.57 2.89 2.37 1.86 1.49 1.58 1.61 1.57 1.64 1.70 1.66 1.64 1.70 1.74
2.83 3.11 3.30 3.63 4.26 5.07 5.56 6.02 6.60 6.92 6.63 6.34 6.05 5.97 5.89 5.82 5.70 5.54 5.49 5.23 4.99 4.72 4.37 4.11 3.96 3.84 3.71 3.67 3.56 3.67 3.16 2.54 2.04 1.65 1.46 1.36 1.41 1.57 1.58 1.59 1.54 1.50 1.56
2.89 3.02 3.24 3.83 4.56 5.22 5.77 6.38 6.98 7.28 7.32 7.10 6.52 6.02 5.60 5.32 5.11 4.97 4.91 4.73 4.54 4.27 4.03 3.76 3.66 3.59 3.69 3.52 3.45 3.28 3.02 2.66 2.40 2.04 1.71 1.50 1.43 1.44 1.49 1.49 1.47 1.48 1.52
2.57 3.05 3.38 3.96 4.65 5.31 6.05 6.79 7.24 7.47 7.46 7.07 6.27 5.49 4.95 4.63 4.35 4.12 4.04 3.93 3.78 3.60 3.43 3.35 3.35 3.31 3.28 3.13 2.98 2.94 2.93 2.85 2.55 2.24 1.93 1.67 1.58 1.50 1.48 1.49 1.58 1.59 1.59
2.48 2.87 3.35 3.67 4.28 4.96 5.57 6.14 6.35 6.52 6.46 6.04 5.60 5.10 4.69 4.17 3.71 3.35 3.19 3.10 2.97 2.86 2.85 2.88 2.92 2.90 2.90 2.87 2.79 2.67 2.58 2.57 2.42 2.32 2.07 1.84 1.82 1.69 1.58 1.52 1.48 1.53 1.59